This demonstration page uses our WeatherBlox Daily Observations layout. Learn more.

39.29038, -76.61219

Hourly Observations for May 27, 2019

Temp ( °F °C ) Dew Point ( °F °C ) Humidity (%) Winds ( mph kmh ) Pressure ( in mb ) Visibility ( mi km ) Precip ( " mm )
12:54 am 00:54 undefined 72 22.2 68 20 87 87 undefined N/A 29.91 1013 N/A 0 0
1:54 am 01:54 undefined 72 22.2 68 20 87 87 undefined N/A 29.88 1012 N/A 0 0
2:54 am 02:54 undefined 72 22.2 66 18.9 82 82 undefined N/A 29.88 1012 N/A 0 0
3:54 am 03:54 undefined 71 21.7 66 18.9 84 84 undefined N/A 29.88 1012 N/A 0 0
4:54 am 04:54 undefined 72 22.2 64 17.8 76 76 undefined N/A 29.91 1013 N/A 0 0
5:54 am 05:54 undefined 72 22.2 63 17.2 73 73 undefined N/A 29.91 1013 N/A 0 0
6:54 am 06:54 undefined 71 21.7 63 17.2 76 76 undefined N/A 29.94 1014 N/A 0 0
7:54 am 07:54 undefined 74 23.3 63 17.2 69 69 undefined N/A 29.97 1015 N/A 0 0
8:54 am 08:54 undefined 75 23.9 63 17.2 66 66 undefined N/A 29.97 1015 N/A 0 0
9:54 am 09:54 undefined 77 25 63 17.2 62 62 undefined N/A 29.97 1015 N/A 0 0
10:54 am 10:54 undefined 78 25.6 62 16.7 58 58 undefined N/A 29.94 1014 N/A 0 0
11:54 am 11:54 undefined 79 26.1 61 16.1 54 54 undefined N/A 29.94 1014 N/A 0 0
12:54 pm 12:54 undefined 79 26.1 60 15.6 52 52 undefined N/A 29.94 1014 N/A 0 0
1:54 pm 13:54 undefined 81 27.2 60 15.6 49 49 undefined N/A 29.91 1013 N/A 0 0
2:54 pm 14:54 undefined 79 26.1 62 16.7 56 56 undefined N/A 29.91 1013 N/A 0 0
3:54 pm 15:54 undefined 81 27.2 64 17.8 57 57 undefined N/A 29.88 1012 N/A 0 0
4:54 pm 16:54 undefined 80 26.7 62 16.7 54 54 undefined N/A 29.88 1012 N/A 0 0
5:54 pm 17:54 undefined 81 27.2 62 16.7 53 53 undefined N/A 29.88 1012 N/A 0 0
6:54 pm 18:54 undefined 80 26.7 61 16.1 52 52 undefined N/A 29.88 1012 N/A 0 0
7:54 pm 19:54 undefined 78 25.6 60 15.6 54 54 undefined N/A 29.91 1013 N/A 0 0
8:54 pm 20:54 undefined 77 25 60 15.6 56 56 undefined N/A 29.91 1013 N/A 0 0
9:54 pm 21:54 undefined 77 25 60 15.6 56 56 undefined N/A 29.91 1013 N/A 0 0
10:54 pm 22:54 undefined 76 24.4 60 15.6 58 58 undefined N/A 29.91 1013 N/A 0 0
11:54 pm 23:54 undefined 74 23.3 62 16.7 67 67 undefined N/A 29.91 1013 N/A 0 0

Powered by AerisWeather